Location: Bruderhein
(53.8035°N, 112.9265°W)
Time: 07:44:47
(UTC+00:00)

TIGRISAT - Pass Details

Date: 05 April 2023
Orbit: 599 x 682 km, 97.7° (Epoch: 03 June)

Event Time Altitude Azimuth Distance (km) Brightness Sun altitude
Rises 03:23:29 0° 3° (N) 3,061 ? -10.7°
Reaches altitude 10° 03:26:45 10° 339° (NNW) 2,143 ? -11.1°
Maximum altitude 03:29:05 14° 309° (NW) 1,887 ? -11.4°
Drops below altitude 10° 03:31:26 10° 279° (W) 2,133 ? -11.7°
Sets 03:34:41 0° 254° (WSW) 3,036 ? -12.1°
